Tracking 19192 objects as of 21-Jun-2018
HD Live streaming from Space Station
objects crossing your sky now

FENGYUN 1C DEB

Track FENGYUN 1C DEB now!
10-day predictions


NORAD ID: 30846
Int'l Code: 1999-025AWG
Perigee: 754.9 km
Apogee: 846.3 km
Inclination: 99.3 °
Period: 100.7 minutes
Semi major axis: 7171 km
RCS: 0.0062 m2 (small)
Launch date: May 10, 1999
Source: People's Republic of China (PRC)
Launch site: Taiyaun Space Center, China (TSC)

Note: This is SATELLITE DEBRIS
aabbcc
Your satellite tracking list
Your tracking list is empty




NASA's NSSDC Master Catalog

Two Line Element Set (TLE):
1 30846U 99025AWG 18171.53825179 +.00000274 +00000-0 +12420-3 0  9999
2 30846 099.2699 110.2148 0063765 309.1366 106.0618 14.29477430588126
Source of the keplerian elements: AFSPC